Location: Muenchen
(48.1800°N, 11.5800°E)
Time: 23:10:20
(UTC+02:00)

Vanguard 2 Rocket - Visible Passes

Search period start: 04 May 2016 00:00
Search period end: 14 May 2016 00:00
Orbit: 554 x 3330 km, 32.9° (Epoch: 03 May)

Date Brightness Start Highest point End Pass type
(mag) Time Alt. Az. Time Alt. Az. Time Alt. Az.
07 May 8.3 05:00:59 10° S 05:01:48 10° S 05:02:35 10° SSE visible
08 May 8.4 04:02:56 11° S 04:03:06 11° S 04:04:19 10° SSE visible
10 May 8.2 04:16:37 13° SSW 04:17:49 14° S 04:20:10 10° SSE visible
11 May 8.5 03:20:31 14° SSE 03:20:31 14° SSE 03:22:04 10° SE visible
12 May 8.2 04:30:13 12° SW 04:32:29 15° S 04:35:08 10° SSE visible
13 May 8.2 03:34:04 18° S 03:34:04 18° S 03:37:19 10° SE visible
